Left ArrowRight Arrow

38.83388, -104.82136

Hourly Observations for November 26, 2023

Temp ( °F °C ) Dew Point ( °F °C ) Humidity (%) Winds ( mph kmh ) Pressure ( in mb ) Visibility ( mi km ) Precip ( " mm )
12:55 am 00:55 Clear 23 -5.2 14 -9.8 70 70 Calm 29.94 1014 10 16 0.00 0.00
1:55 am 01:55 Clear 23 -5.2 15 -9.5 72 72 W 3 6 29.94 1014 10 16 0.00 0.00
2:55 am 02:55 Clear 22 -5.6 14 -9.9 72 72 W 5 7 29.98 1015 10 16 0.00 0.00
3:55 am 03:55 Clear 25 -4.1 11 -11.8 55 55 NW 8 13 29.98 1015 10 16 0.00 0.00
4:55 am 04:55 Clear 25 -4.1 10 -12 54 54 NW 18 30 29.99 1016 10 16 0.00 0.00
5:55 am 05:55 Clear 24 -4.7 11 -11.7 58 58 WNW 9 15 30.03 1017 10 16 0.00 0.00
6:55 am 06:55 Sunny 24 -4.6 11 -11.6 58 58 WNW 10 17 30.05 1018 10 16 0.00 0.00
7:55 am 07:55 Sunny 26 -3.3 13 -10.6 57 57 NW 5 7 30.05 1018 10 16 0.00 0.00
8:55 am 08:55 Sunny 30 -1.2 16 -9.1 55 55 Calm 30.04 1017 10 16 0.00 0.00
9:55 am 09:55 Sunny 31 -0.3 20 -6.9 61 61 SE 7 11 30.03 1017 10 16 0.00 0.00
10:55 am 10:55 Sunny 33 0.7 16 -9.1 48 48 SE 12 19 30.00 1016 10 16 0.00 0.00
11:55 am 11:55 Sunny 35 1.5 17 -8.6 47 47 SE 14 22 29.95 1014 10 16 0.00 0.00
12:55 pm 12:55 Sunny 34 1.3 14 -9.9 43 43 SSE 10 17 29.93 1014 10 16 0.00 0.00
1:55 pm 13:55 Sunny 34 1.1 13 -10.4 42 42 SSE 13 20 29.91 1013 10 16 0.00 0.00
2:55 pm 14:55 Sunny 31 -0.3 13 -10.5 46 46 S 13 20 29.92 1013 10 16 0.00 0.00
3:55 pm 15:55 Sunny 31 -0.8 13 -10.7 47 47 S 12 19 29.93 1014 10 16 0.00 0.00
4:55 pm 16:55 Clear 29 -1.4 12 -11 48 48 S 10 17 29.93 1014 10 16 0.00 0.00
5:55 pm 17:55 Clear 30 -1.3 12 -10.9 48 48 SSW 13 20 29.93 1014 10 16 0.00 0.00
6:55 pm 18:55 Clear 30 -1.1 12 -11 47 47 SW 21 33 29.94 1014 10 16 0.00 0.00
7:55 pm 19:55 Clear 27 -2.8 13 -10.6 55 55 Calm 29.94 1014 10 16 0.00 0.00
8:55 pm 20:55 Clear 24 -4.4 14 -10.2 64 64 NW 3 6 29.95 1014 10 16 0.00 0.00
9:55 pm 21:55 Clear 24 -4.5 13 -10.7 62 62 NW 6 9 29.95 1014 10 16 0.00 0.00
10:55 pm 22:55 Clear 24 -4.3 11 -11.8 56 56 S 7 11 29.96 1015 10 16 0.00 0.00
11:55 pm 23:55 Clear 22 -5.5 10 -12.1 60 60 N 3 6 29.96 1015 10 16 0.00 0.00

Powered by Vaisala Xweather